Location: Plymouth Junction
(43.2275°N, 93.1308°W)
Time: 05:42:15
(UTC+00:00)

Envisat - Visible Passes

Search period start: 05 October 2024 00:00
Search period end: 15 October 2024 00:00
Orbit: 762 x 764 km, 98.3° (Epoch: 04 October)

Date Brightness Start Highest point End Pass type
(mag) Time Alt. Az. Time Alt. Az. Time Alt. Az.
05 Oct 5.6 08:15:20 10° NE 08:16:53 15° ENE 08:16:53 15° ENE visible
05 Oct 3.6 09:53:15 10° N 09:57:02 43° NNW 09:57:02 43° NNW visible
06 Oct 4.1 09:15:41 10° NNE 09:18:59 40° NNE 09:18:59 40° NNE visible
06 Oct 4.6 10:56:07 10° NNW 10:59:07 16° WNW 10:59:07 16° WNW visible
07 Oct 5.1 08:38:37 10° NNE 08:40:56 23° NE 08:40:56 23° NE visible
07 Oct 4.0 10:17:34 10° N 10:21:04 30° NW 10:21:04 30° NW visible
08 Oct 6.0 08:02:35 10° ENE 08:02:53 11° ENE 08:02:53 11° ENE visible
08 Oct 3.8 09:39:42 10° N 09:43:01 41° N 09:43:01 41° N visible
09 Oct 4.6 09:02:17 10° NNE 09:04:58 30° NE 09:04:58 30° NE visible
09 Oct 4.4 10:42:08 10° NNW 10:45:07 20° NW 10:45:07 20° NW visible
10 Oct 5.6 08:25:28 10° NE 08:26:55 16° NE 08:26:55 16° NE visible
10 Oct 4.0 10:03:54 10° N 10:07:03 32° NNW 10:07:03 32° NNW visible
11 Oct 4.3 09:26:11 10° NNE 09:28:59 34° NNE 09:28:59 34° NNE visible
11 Oct 4.8 11:07:16 10° NNW 11:09:08 13° NW 11:09:08 13° NW visible
12 Oct 5.2 08:48:56 10° NNE 08:50:55 22° NE 08:50:55 22° NE visible
12 Oct 4.3 10:28:18 10° N 10:31:03 23° NW 10:31:03 23° NW visible
13 Oct 5.9 08:12:28 10° NE 08:12:52 11° NE 08:12:52 11° NE visible
13 Oct 4.2 09:50:16 10° N 09:53:00 31° N 09:53:00 31° N visible
14 Oct 4.8 09:12:42 10° NNE 09:14:56 26° NNE 09:14:56 26° NNE visible
14 Oct 4.7 10:53:01 10° NNW 10:55:04 16° NW 10:55:04 16° NW visible
